Flag for Poland Weather past 2 weeks in Opole, Poland

Now
37 °F

Light rain. Partly sunny.


Feels Like: 35 °F
Forecast: 31 / 44 °F
Wind: 3 mph from Northwest

Location: Wroclaw Ii

Current Time: Mar 5, 2015 at 8:16:02 AM

Latest Report: Mar 5, 2015 at 7:30 AM


Visibility: N/A

Pressure: 30.33 "Hg

Humidity: 75%

Dew point: 30 °F

Location of OpoleLocation

Historic Weather in Opole — Graph

°F

Opole temperature yesterday

Maximum temperature yesterday: 46 °F (at 2:30 PM)
Minimum temperature yesterday: 36 °F (at 8:30 PM)
Average temperature yesterday: 42 °F

Past Weeks' High & Low Weather Summary

 TemperatureHumidityPressure
High52 °F (Mar 2, 12:30 PM)93% (Feb 18, 7:00 PM)30.72 "Hg (Feb 18, 7:00 PM)
Low23 °F (Feb 19, 5:30 AM)35% (Mar 2, 2:00 PM)29.47 "Hg (Mar 2, 9:00 AM)
Average40 °F72%29.95 "Hg
* Reported Feb 18 7:00 AM — Mar 5 7:00 AM, Opole, Weather by CustomWeather, © 2015

Note: Actual official high and low records may vary slightly from our data, if they occured in-between our weather recording intervals... More about our weather records

Advertising

Opole weather history for previous 24 hours

 ConditionsComfort  
Time TempWeatherWind HumidityBarometerVisibility
7:00 AM
Thu, Mar 5
36 °FLight rain. Partly sunny.3 mph81%30.33 "HgN/A
6:30 AM36 °FPartly sunny.3 mph75%30.30 "HgN/A
6:00 AM36 °FPassing clouds.5 mph75%30.30 "HgN/A
5:30 AM36 °FPassing clouds.3 mph75%30.30 "HgN/A
5:00 AM36 °FPassing clouds.5 mph75%30.30 "HgN/A
4:30 AM36 °FPassing clouds.7 mph75%30.30 "HgN/A
4:00 AM34 °FPassing clouds.5 mph81%30.30 "HgN/A
3:00 AM37 °FPassing clouds.7 mph70%30.27 "HgN/A
2:30 AM37 °FClear.6 mph75%30.27 "Hg10 mi
2:00 AM39 °FClear.7 mph70%30.27 "Hg10 mi
1:30 AM39 °FClear.9 mph65%30.27 "Hg10 mi
1:00 AM41 °FClear.9 mph61%30.27 "Hg10 mi
12:30 AM41 °FClear.9 mph57%30.24 "Hg10 mi
12:00 AM41 °FClear.9 mph57%30.24 "Hg10 mi
11:30 PM
Wed, Mar 4
41 °FClear.9 mph57%30.24 "Hg10 mi
11:00 PM41 °FClear.10 mph57%30.24 "Hg10 mi
10:00 PM39 °FClear.7 mph61%30.24 "Hg10 mi
9:30 PM39 °FClear.8 mph61%30.24 "Hg10 mi
9:00 PM36 °FPassing clouds.5 mph70%30.24 "HgN/A
8:30 PM36 °FPassing clouds.5 mph70%30.24 "HgN/A
8:00 PM37 °FPassing clouds.6 mph65%30.24 "HgN/A
7:30 PM41 °FPassing clouds.7 mph57%30.21 "HgN/A
7:00 PM41 °FClear.9 mph57%30.21 "Hg10 mi
6:30 PM41 °FClear.9 mph57%30.21 "Hg10 mi
6:00 PM43 °FClear.14 mph53%30.18 "Hg10 mi
5:30 PM45 °FSunny.14 mph46%30.18 "Hg10 mi
5:00 PM45 °FSunny.13 mph42%30.18 "Hg10 mi
4:30 PM45 °FPassing clouds.13 mph42%30.18 "HgN/A
4:00 PM46 °FPassing clouds.15 mph37%30.15 "HgN/A
3:30 PM46 °FPassing clouds.17 mph37%30.15 "HgN/A
3:00 PM46 °FPassing clouds.21 mph40%30.15 "HgN/A
2:30 PM46 °FScattered clouds.18 mph43%30.15 "HgN/A
2:00 PM45 °FScattered clouds.17 mph46%30.15 "HgN/A
1:30 PM45 °FScattered clouds.22 mph42%30.15 "HgN/A
1:00 PM45 °FScattered clouds.20 mph49%30.15 "HgN/A
12:30 PM45 °FPartly sunny.17 mph49%30.12 "HgN/A
12:00 PM45 °FPartly sunny.22 mph49%30.12 "HgN/A
11:30 AM45 °FScattered clouds.23 mph57%30.12 "HgN/A
11:00 AM43 °FScattered clouds.17 mph61%30.12 "HgN/A
10:30 AM41 °FPartly sunny.20 mph66%30.12 "HgN/A
10:00 AM41 °FPartly sunny.16 mph61%30.09 "HgN/A
9:30 AM41 °FPartly sunny.16 mph66%30.09 "HgN/A
9:00 AM41 °FPartly sunny.18 mph61%30.07 "HgN/A
8:30 AM39 °FScattered clouds.14 mph70%30.07 "HgN/A
8:00 AM39 °FPassing clouds.14 mph70%30.07 "HgN/A
Weather by CustomWeather, © 2015

See weather overviewHow to use our weather pages